Regional Weather Roundup
Issued by NWS Goodland, KS

Home | Current Version | Previous Version | Text Only | Print | Product List | Glossary Off
Versions: 1 2 3 4 5 6 7 8 9 10 11 12 13 14 15 16 17 18 19 20 21 22 23 24 25 26 27 28 29 30 31 32 33 34 35 36 37 38 39 40 41 42 43 44 45 46 47 48 49 50

000
ASUS43 KGLD 011659
RWRGLD

GOODLAND FORECAST AREA HOURLY WEATHER ROUNDUP
NATIONAL WEATHER SERVICE GOODLAND KS
1100 AM MDT WED APR 01 2015

...OFFICIAL OBSERVATIONS...

CITY           SKY/WX    TMP DP  RH WIND       PRES   REMARKS
GOODLAND KS    MOSUNNY   72  40  31 S16       29.69F
HILL CITY KS   SUNNY     76  45  33 SW18G35   29.69F
IMPERIAL NEB     N/A     74  30  19 NW9       29.67F
MCCOOK NEB     MOSUNNY   75  42  30 S18       29.65F
AKRON CO       PTSUNNY   69  26  20 NW14      29.75S
BURLINGTON CO  MOSUNNY   77  25  14 W21G28    29.73S
LIMON CO       CLOUDY    68  24  19 W13       29.79S
$$

...UNOFFICIAL OBSERVATIONS...

CITY           SKY/WX    TMP DP  RH WIND       PRES   REMARKS
COLBY KS       SUNNY     72  46  40 S17G23    29.70F
GOVE KS          N/A     72  32  23 MISG        N/A
LENORA KS        N/A     73  32  22 MISG        N/A
NORTON KS      SUNNY     75  37  25 S21G29    29.66F
SHARON SPRINGS   N/A     69  43  39 SW13G20     N/A
TRIBUNE KS     SUNNY     72  48  43 SW13      29.75F
KIT CARSON CO    N/A     74  33  22 MISG        N/A
YUMA CO          N/A     70  26  19 NW20        N/A
$$


USA.gov is the U.S. government's official web portal to all federal, state and local government web resources and services.